TimeCDT,TemperatureF,Dew PointF,Humidity,Sea Level PressureIn,VisibilityMPH,Wind Direction,Wind SpeedMPH,Gust SpeedMPH,PrecipitationIn,Events,Conditions,WindDirDegrees,DateUTC
12:53 AM,7.0,1.0,77,30.14,10.0,NE,9.2,-,N/A,,Clear,50,2013-03-22 05:53:00
1:53 AM,6.1,-0.0,76,30.14,10.0,NE,5.8,-,N/A,,Scattered Clouds,50,2013-03-22 06:53:00
2:53 AM,5.0,-0.9,76,30.12,10.0,North,6.9,-,N/A,,Clear,350,2013-03-22 07:53:00
3:53 AM,3.9,-0.9,80,30.12,10.0,North,5.8,-,N/A,,Clear,10,2013-03-22 08:53:00
4:53 AM,5.0,-0.9,76,30.10,10.0,NNE,9.2,-,N/A,,Overcast,30,2013-03-22 09:53:00
5:53 AM,3.9,-2.0,76,30.11,10.0,NNE,5.8,-,N/A,,Clear,20,2013-03-22 10:53:00
6:53 AM,3.9,-0.9,80,30.12,10.0,NNE,5.8,-,N/A,,Mostly Cloudy,20,2013-03-22 11:53:00
7:53 AM,5.0,-0.0,80,30.13,10.0,NE,8.1,-,N/A,,Overcast,40,2013-03-22 12:53:00
8:53 AM,7.0,1.0,77,30.12,10.0,NE,6.9,-,N/A,,Mostly Cloudy,40,2013-03-22 13:53:00
9:53 AM,10.0,3.0,73,30.11,10.0,NE,6.9,-,N/A,,Partly Cloudy,50,2013-03-22 14:53:00
10:53 AM,14.0,7.0,74,30.10,10.0,NE,6.9,-,N/A,,Scattered Clouds,50,2013-03-22 15:53:00
11:53 AM,17.1,10.0,74,30.11,10.0,East,4.6,-,N/A,,Overcast,80,2013-03-22 16:53:00
12:53 PM,19.0,12.0,74,30.12,10.0,Calm,Calm,-,N/A,,Overcast,0,2013-03-22 17:53:00
1:53 PM,21.9,15.1,75,30.10,10.0,Variable,4.6,-,N/A,,Overcast,0,2013-03-22 18:53:00
2:53 PM,25.0,16.0,69,30.09,10.0,NE,5.8,-,N/A,,Overcast,40,2013-03-22 19:53:00
3:53 PM,28.0,18.0,66,30.09,10.0,Calm,Calm,-,N/A,,Overcast,0,2013-03-22 20:53:00
4:53 PM,27.0,18.0,69,30.09,10.0,East,6.9,-,N/A,,Overcast,80,2013-03-22 21:53:00
5:53 PM,27.0,19.0,72,30.10,10.0,East,8.1,-,N/A,,Overcast,80,2013-03-22 22:53:00
6:53 PM,26.1,19.0,75,30.11,10.0,ENE,8.1,-,N/A,,Overcast,60,2013-03-22 23:53:00
7:53 PM,25.0,19.0,78,30.13,10.0,NE,5.8,-,N/A,,Overcast,40,2013-03-23 00:53:00
8:53 PM,24.1,18.0,77,30.14,10.0,NE,8.1,-,N/A,,Overcast,40,2013-03-23 01:53:00
9:53 PM,21.9,17.1,82,30.15,10.0,NE,6.9,-,N/A,,Overcast,50,2013-03-23 02:53:00
10:53 PM,21.9,17.1,82,30.16,10.0,NE,6.9,-,N/A,,Overcast,50,2013-03-23 03:53:00
11:53 PM,21.0,17.1,85,30.17,8.0,NE,5.8,-,N/A,,Overcast,50,2013-03-23 04:53:00